Weather History for Ellensburg, WA

Change the Weather History Date:

Saturday, February 23, 2013

  Actual Average (KYKM) Record (KYKM)
Temperature  
Mean Temperature 38 °F 38 °F  
Max Temperature 46 °F 49 °F 69 °F (1947)
Min Temperature 30 °F 27 °F 16 °F (1993)
Degree Days  
Heating Degree Days 27 27  
Month to date heating degree days 676  
Since 1 July heating degree days 4394  
Cooling Degree Days 0 0  
Month to date cooling degree days 0  
Year to date cooling degree days 0  
Moisture  
Dew Point 27 °F    
Average Humidity 64    
Maximum Humidity 75    
Minimum Humidity 46    
Precipitation  
Precipitation 0.00 in 0.03 in 0.28 in (2009)
Month to date precipitation 0.65  
Year to date precipitation 1.79  
Snow  
Snow 0.00 in 0.10 in 2.40 in (1969)
Month to date snowfall 2.3  
Year to date snowfall 7.6  
Since 1 July snowfall 20.6  
Snow Depth -    
Sea Level Pressure  
Sea Level Pressure 30.06 in    
Wind  
Wind Speed 16 mph (NW)    
Max Wind Speed 30 mph    
Max Gust Speed 37 mph    
Visibility 10 miles    
Events      
T = Trace of Precipitation, MM = Missing Value Source: NWS Daily Summary

Daily Weather History Graph

Daily Weather History Graph

Search for Another Location

Airport:

Trip Planner

Search our weather history database for the weather conditions in past years. The results will help you decide how hot, cold, wet, or windy it might be!

Date:

Astronomy

Feb. 23, 2013 Rise Set
Actual Time 6:52 AM PST 5:39 PM PST
Civil Twilight 6:21 AM PST 6:10 PM PST
Nautical Twilight 5:46 AM PST 6:45 PM PST
Astronomical Twilight 5:11 AM PST 7:20 PM PST
Moon 3:51 PM PST (2/23) 5:22 AM PST (2/23)
Length of Visible Light 11h 48m
Length of Day
10h 46m
Waxing Gibbous, 96% of the Moon is Illuminated
Feb 23
Waxing Gibbous
Feb 25
Full
Mar 4
Last Quarter
Mar 11
New
Mar 19
First Quarter

Hourly Weather History & Observations

Time (PST) Temp. Windchill Dew Point Humidity Pressure Visibility Wind Dir Wind Speed Gust Speed Precip Events Conditions
12:53 AM 32.0 °F 23.0 °F 24.1 °F 73% 29.84 in 10.0 mi NW 11.5 mph - N/A   Clear
1:53 AM 30.0 °F 21.1 °F 23.0 °F 75% 29.85 in 10.0 mi WNW 10.4 mph - N/A   Clear
2:53 AM 30.0 °F 24.1 °F 23.0 °F 75% 29.86 in 10.0 mi NW 5.8 mph - N/A   Clear
3:53 AM 33.1 °F 25.5 °F 24.1 °F 70% 29.88 in 10.0 mi NNW 9.2 mph - N/A   Clear
4:53 AM 34.0 °F 23.4 °F 25.0 °F 70% 29.87 in 10.0 mi NW 17.3 mph 28.8 mph N/A   Clear
5:53 AM 34.0 °F 24.6 °F 25.0 °F 70% 29.90 in 10.0 mi NW 13.8 mph - N/A   Clear
6:53 AM 35.1 °F 24.5 °F 26.1 °F 70% 29.92 in 10.0 mi WNW 18.4 mph - N/A   Clear
7:53 AM 37.0 °F 26.4 °F 28.0 °F 70% 29.95 in 10.0 mi WNW 20.7 mph 29.9 mph N/A   Clear
8:53 AM 39.9 °F 29.7 °F 28.9 °F 65% 29.97 in 10.0 mi NW 23.0 mph 33.4 mph N/A   Clear
9:53 AM 43.0 °F 34.2 °F 30.0 °F 60% 30.01 in 10.0 mi NW 20.7 mph 31.1 mph N/A   Clear
10:53 AM 45.0 °F 36.4 °F 28.9 °F 53% 30.05 in 10.0 mi NW 23.0 mph 32.2 mph N/A   Clear
11:53 AM 46.0 °F 36.7 °F 28.0 °F 50% 30.06 in 10.0 mi NW 29.9 mph 36.8 mph N/A   Clear
12:53 PM 46.9 °F - 28.0 °F 48% 30.08 in 10.0 mi WNW 24.2 mph 33.4 mph N/A   Clear
1:53 PM 46.9 °F - 27.0 °F 46% 30.10 in 10.0 mi WNW 24.2 mph 32.2 mph N/A   Unknown
2:53 PM 46.0 °F 37.8 °F 27.0 °F 47% 30.14 in 10.0 mi NW 23.0 mph 29.9 mph N/A   Clear
3:53 PM 42.1 °F 33.1 °F 27.0 °F 55% 30.17 in 10.0 mi WNW 20.7 mph 27.6 mph N/A   Partly Cloudy
4:53 PM 42.1 °F 34.5 °F 27.0 °F 55% 30.19 in 10.0 mi WNW 15.0 mph 21.9 mph N/A   Partly Cloudy
5:53 PM 37.9 °F 29.2 °F 28.9 °F 70% 30.22 in 10.0 mi NW 15.0 mph - N/A   Overcast
7:53 PM 36.0 °F 26.0 °F 28.0 °F 73% 30.25 in 10.0 mi NW 17.3 mph - N/A   Partly Cloudy
8:53 PM 36.0 °F 26.7 °F 28.0 °F 73% 30.27 in 10.0 mi NW 15.0 mph - N/A   Partly Cloudy
9:53 PM 36.0 °F 26.7 °F 28.0 °F 73% 30.28 in 10.0 mi NW 15.0 mph - N/A   Clear
10:53 PM 35.1 °F 26.9 °F 27.0 °F 72% 30.29 in 10.0 mi WNW 11.5 mph - N/A   Clear
11:53 PM 36.0 °F 26.3 °F 27.0 °F 70% 30.29 in 10.0 mi NW 16.1 mph - N/A   Clear